User: anonymous   Login
Location: Turtle Rock Observatory
(36.6913°N, 81.9708°W)
Time: 04:27:48
(UTC-04:00)
Language:

Cosmos 1125 Rocket - Orbit

View from above orbital plane
View from above orbital plane
View from above satellite
View from above satellite

Ground track
Ground track

The orbit data is extracted from the following two-line orbital elements,

1 11511U 79078B   15149.16187735  .00000086  00000-0  38218-4 0  9998
2 11511 074.0374 253.7024 0016476 318.3585 041.6312 14.36623329870906
Epoch (UTC): 29 May 2015 03:53:06
Eccentricity: 0.0016476
inclination: 74.0374°
perigee height: 758 km
apogee height: 781 km
right ascension of ascending node: 253.7024°
argument of perigee: 318.3585°
revolutions per day: 14.36623329
mean anomaly at epoch: 41.6312°
orbit number at epoch: 87090

The dashed part of the orbit path shows where the satellite is in the earth's shadow,  

DLR